Burbank, CA

2:27 PM PDT on June 22, 2018 (GMT -0700)
Burbank-Glendale-Pasadena

Weather History for KBUR - October, 2017

Change the Weather History Date:

Saturday, October 7, 2017

  Actual Average Record
Temperature  
Mean Temperature 79 °F 69 °F  
Max Temperature 95 °F 81 °F 99 °F (1971)
Min Temperature 62 °F 56 °F 45 °F (1941)
Degree Days  
Heating Degree Days 0 1  
Month to date heating degree days 0 7  
Since 1 July heating degree days 3 13  
Cooling Degree Days 14 4  
Month to date cooling degree days 44 35  
Year to date cooling degree days 1671 1166  
Growing Degree Days 28 (Base 50)    
Moisture  
Dew Point 27 °F    
Average Humidity 21    
Maximum Humidity 34    
Minimum Humidity 7    
Precipitation  
Precipitation 0.00 in 0.02 in 0.25 in (1974)
Month to date precipitation 0.00 0.16  
Year to date precipitation 9.62 13.03  
Sea Level Pressure  
Sea Level Pressure 29.77 in    
Wind  
Wind Speed 2 mph (SSE)    
Max Wind Speed 13 mph    
Max Gust Speed 17 mph    
Visibility 10 miles    
Events      
T = Trace of Precipitation, MM = Missing Value Source: NWS Daily Summary

Daily Weather History Graph

Daily Weather History Graph

Search for Another Location

Airport or City:

Astronomy

Oct. 07, 2017 Rise Set
Actual Time 6:52 AM PDT 6:29 PM PDT
Civil Twilight 6:27 AM PDT 6:54 PM PDT
Nautical Twilight 5:58 AM PDT 7:23 PM PDT
Astronomical Twilight 5:29 AM PDT 7:52 PM PDT
Moon 8:15 PM PDT (10/7) 8:48 AM PDT (10/7)
Length of Visible Light 12h 26m
Length of Day
11h 36m
Waning Gibbous, 95% of the Moon is Illuminated
Oct 7
Waning Gibbous
Oct 12
Last Quarter
Oct 19
New
Oct 27
First Quarter
Nov 3
Full

Hourly Weather History & Observations

Time (PDT) Temp. Dew Point Humidity Pressure Visibility Wind Dir Wind Speed Gust Speed Precip Events Conditions
12:53 AM 68.0 °F 28.0 °F 22% 29.83 in 10.0 mi Calm Calm - N/A   Clear
1:53 AM 66.9 °F 25.0 °F 21% 29.83 in 10.0 mi Calm Calm - N/A   Clear
2:53 AM 64.0 °F 26.1 °F 24% 29.81 in 10.0 mi Calm Calm - N/A   Clear
3:53 AM 64.9 °F 26.1 °F 23% 29.81 in 10.0 mi Calm Calm - N/A   Clear
4:53 AM 64.9 °F 21.9 °F 19% 29.80 in 10.0 mi Calm Calm - N/A   Clear
5:53 AM 66.0 °F 19.9 °F 17% 29.80 in 10.0 mi Calm Calm - N/A   Clear
6:53 AM 62.1 °F 25.0 °F 24% 29.81 in 10.0 mi Calm Calm - N/A   Clear
7:53 AM 69.1 °F 21.0 °F 16% 29.80 in 10.0 mi Calm Calm - N/A   Clear
8:53 AM 73.9 °F 19.9 °F 13% 29.82 in 10.0 mi Calm Calm - N/A   Clear
9:53 AM 79.0 °F 27.0 °F 15% 29.82 in 10.0 mi Calm Calm - N/A   Clear
10:53 AM 86.0 °F 25.0 °F 11% 29.81 in 10.0 mi Calm Calm - N/A   Clear
11:53 AM 91.9 °F 19.9 °F 7% 29.80 in 10.0 mi East 3.5 mph - N/A   Clear
12:53 PM 93.0 °F 19.0 °F 7% 29.77 in 10.0 mi South 4.6 mph - N/A   Clear
1:53 PM 93.9 °F 25.0 °F 8% 29.74 in 10.0 mi SSE 6.9 mph - N/A   Clear
2:53 PM 93.9 °F 19.9 °F 7% 29.72 in 10.0 mi SSW 8.1 mph - N/A   Clear
3:53 PM 91.9 °F 21.0 °F 8% 29.71 in 10.0 mi South 13.8 mph - N/A   Clear
4:53 PM 90.0 °F 21.9 °F 8% 29.71 in 10.0 mi South 8.1 mph - N/A   Clear
5:53 PM 87.1 °F 32.0 °F 14% 29.71 in 10.0 mi SE 3.5 mph - N/A   Clear
6:53 PM 82.0 °F 35.1 °F 18% 29.71 in 10.0 mi SSE 3.5 mph - N/A   Clear
7:53 PM 79.0 °F 37.0 °F 22% 29.71 in 10.0 mi Calm Calm - N/A   Clear
8:53 PM 77.0 °F 41.0 °F 28% 29.71 in 10.0 mi Calm Calm - N/A   Clear
9:53 PM 72.0 °F 41.0 °F 33% 29.72 in 10.0 mi NE 3.5 mph - N/A   Clear
10:53 PM 71.1 °F 41.0 °F 34% 29.72 in 10.0 mi Calm Calm - N/A   Clear
11:53 PM 69.1 °F 39.9 °F 35% 29.71 in 10.0 mi NE 3.5 mph - N/A   Clear